Weather History for PASC - May, 2014

Change the Weather History Date:

Sunday, May 4, 2014

  Actual Average Record
Temperature  
Mean Temperature 28 °F -  
Max Temperature 34 °F 18 °F 34 °F (2014)
Min Temperature 23 °F 5 °F -19 °F (1992)
Degree Days  
Heating Degree Days 36    
Moisture  
Dew Point 26 °F    
Average Humidity 93    
Maximum Humidity 100    
Minimum Humidity 82    
Precipitation  
Precipitation 0.00 in - - ()
Sea Level Pressure  
Sea Level Pressure 29.78 in    
Wind  
Wind Speed 10 mph (SE)    
Max Wind Speed 32 mph    
Max Gust Speed 38 mph    
Visibility 6 miles    
Events Fog , Snow    
Averages and records for this station are not official NWS values.
T = Trace of Precipitation, MM = Missing Value Source: NWS Daily Summary

Daily Weather History Graph

Daily Weather History Graph

Search for Another Location

Airport or City:

Trip Planner

Search our weather history database for the weather conditions in past years. The results will help you decide how hot, cold, wet, or windy it might be!

Date:

Astronomy

May. 04, 2014 Rise Set
Actual Time 4:01 AM AKDT 11:45 PM AKDT
Civil Twilight Sun does not set Sun does not set
Nautical Twilight Sun does not set Sun does not set
Astronomical Twilight Sun does not set Sun does not set
Moon 8:22 AM AKDT (5/4) 4:09 AM AKDT (5/4)
Length of Visible Light 24h 00m
Length of Day
19h 44m
Waxing Crescent, 29% of the Moon is Illuminated
May 4
Waxing Crescent
May 6
First Quarter
May 14
Full
May 21
Last Quarter
May 28
New

Hourly Weather History & Observations

Time (AKDT) Temp. Windchill Dew Point Humidity Pressure Visibility Wind Dir Wind Speed Gust Speed Precip Events Conditions
12:26 AM 28.0 °F 20.0 °F 27.0 °F 96% 29.85 in 0.5 mi ESE 8.1 mph - N/A Fog Light Freezing Fog
12:53 AM 28.0 °F 20.8 °F 27.0 °F 96% 29.85 in 0.5 mi ESE 6.9 mph - N/A Fog Light Freezing Fog
1:43 AM 27.0 °F 19.5 °F 26.1 °F 96% 29.83 in 0.2 mi ESE 6.9 mph - N/A Fog Light Freezing Fog
1:53 AM 26.1 °F 19.4 °F 26.1 °F 100% 29.83 in 0.5 mi East 5.8 mph - N/A Fog Light Freezing Fog
2:53 AM 25.0 °F 18.1 °F 25.0 °F 100% 29.81 in 1.8 mi East 5.8 mph - N/A   Mostly Cloudy
2:59 AM 25.0 °F 18.1 °F 25.0 °F 100% 29.80 in 2.0 mi East 5.8 mph - N/A   Mostly Cloudy
3:07 AM 25.0 °F 18.1 °F 24.1 °F 96% 29.80 in 3.0 mi East 5.8 mph - N/A   Mostly Cloudy
3:53 AM 25.0 °F 17.1 °F 24.1 °F 96% 29.79 in 3.0 mi East 6.9 mph - N/A   Mostly Cloudy
3:56 AM 25.0 °F 18.1 °F 24.1 °F 96% 29.79 in 1.5 mi East 5.8 mph - N/A   Mostly Cloudy
4:02 AM 25.0 °F 17.1 °F 24.1 °F 96% 29.78 in 2.0 mi East 6.9 mph - N/A   Mostly Cloudy
4:05 AM 25.0 °F 17.1 °F 24.1 °F 96% 29.78 in 1.5 mi East 6.9 mph - N/A   Mostly Cloudy
4:35 AM 24.1 °F 19.7 °F 24.1 °F 100% 29.78 in 0.5 mi ESE 3.5 mph - N/A Fog Light Freezing Fog
4:53 AM 24.1 °F 18.2 °F 21.9 °F 91% 29.77 in 0.5 mi East 4.6 mph - N/A Fog Light Freezing Fog
5:36 AM 24.1 °F 18.2 °F 23.0 °F 96% 29.75 in 1.8 mi SE 4.6 mph - N/A   Mostly Cloudy
5:53 AM 23.0 °F 15.8 °F 21.9 °F 96% 29.75 in 2.0 mi East 5.8 mph - N/A   Mostly Cloudy
6:02 AM 24.1 °F 18.2 °F 21.9 °F 91% 29.74 in 6.0 mi East 4.6 mph - N/A   Mostly Cloudy
6:53 AM 24.1 °F 16.0 °F 21.9 °F 91% 29.73 in 10.0 mi East 6.9 mph - N/A   Mostly Cloudy
7:53 AM 25.0 °F 18.1 °F 23.0 °F 92% 29.71 in 10.0 mi ESE 5.8 mph - N/A   Partly Cloudy
8:53 AM 27.0 °F 21.6 °F 25.0 °F 92% 29.69 in 10.0 mi ESE 4.6 mph - N/A   Clear
9:53 AM 30.0 °F - 28.0 °F 92% 29.66 in 10.0 mi Calm Calm - N/A   Clear
10:53 AM 30.9 °F 25.2 °F 30.0 °F 96% 29.64 in 10.0 mi East 5.8 mph - N/A   Clear
11:53 AM 33.1 °F 26.1 °F 30.9 °F 92% 29.66 in 10.0 mi SW 8.1 mph - N/A   Clear
12:53 PM 34.0 °F 21.3 °F 30.0 °F 85% 29.69 in 10.0 mi West 25.3 mph - N/A   Mostly Cloudy
1:14 PM 32.0 °F 17.2 °F 28.9 °F 88% 29.70 in 10.0 mi West 32.2 mph 38.0 mph N/A   Mostly Cloudy
1:35 PM 33.1 °F 18.9 °F 30.0 °F 89% 29.71 in 10.0 mi West 31.1 mph 35.7 mph N/A   Overcast
1:53 PM 33.1 °F 18.7 °F 30.9 °F 92% 29.74 in 10.0 mi WNW 32.2 mph 38.0 mph N/A   Overcast
2:53 PM 33.1 °F 19.8 °F 30.0 °F 89% 29.77 in 10.0 mi WNW 26.5 mph - N/A   Overcast
3:53 PM 32.0 °F 18.9 °F 28.9 °F 88% 29.82 in 10.0 mi West 24.2 mph - N/A   Overcast
4:20 PM 32.0 °F 19.5 °F 28.9 °F 88% 29.81 in 10.0 mi West 21.9 mph - N/A   Overcast
4:53 PM 32.0 °F 20.1 °F 28.9 °F 88% 29.83 in 10.0 mi West 19.6 mph - N/A   Overcast
5:53 PM 32.0 °F 21.6 °F 27.0 °F 82% 29.87 in 10.0 mi West 15.0 mph - N/A   Overcast
6:53 PM 30.9 °F 20.7 °F 28.0 °F 89% 29.87 in 3.0 mi SW 13.8 mph - 0.00 in Snow Light Snow
7:53 PM 30.9 °F 20.7 °F 28.0 °F 89% 29.88 in 7.0 mi SW 13.8 mph - 0.00 in   Overcast
8:53 PM 30.9 °F 20.7 °F 28.0 °F 89% 29.88 in 10.0 mi SSW 13.8 mph - N/A   Overcast
9:53 PM 30.9 °F 20.2 °F 28.0 °F 89% 29.89 in 10.0 mi SSW 15.0 mph - N/A   Mostly Cloudy
10:53 PM 30.0 °F 18.7 °F 28.0 °F 92% 29.89 in 10.0 mi SSW 16.1 mph - N/A   Mostly Cloudy
11:53 PM 28.9 °F 18.2 °F 26.1 °F 89% 29.90 in 10.0 mi SW 13.8 mph - N/A   Mostly Cloudy